BAW22 EGKK-KJFK

Flight info

Callsign BAW22
Flight time N/A
Altitude 34000
Route NOVMA L620 SAM N19 ADKIK DCT MOPAT DCT ERTER DCT LILNO DCT LIMRI/M082F360 NATF TUDEP/N0467F360 N520C TUSKY DCT PLYMM PARCH4
Aircraft B772/H-SDE2E3FGHIJ5LORVWXY/LB1D1

Departure

Time 2026-05-05 12:10
Airport London Gatwick Airport (EGKK)

Arrival

Time N/A
Airport John F. Kennedy International Airport (KJFK)
Time Latitude Longitude Altitude Speed Heading
2026-05-05 11:40 51.15758 -0.16746 208 ft 0 kts 348°
2026-05-05 11:54 51.15749 -0.16743 208 ft 4 kts 348°
2026-05-05 11:54 51.15723 -0.16734 212 ft 4 kts 348°
2026-05-05 11:54 51.15702 -0.16726 213 ft 4 kts 326°
2026-05-05 11:55 51.15691 -0.16698 222 ft 4 kts 263°
2026-05-05 11:55 51.15695 -0.16658 219 ft 4 kts 258°
2026-05-05 11:55 51.15698 -0.16642 216 ft 0 kts 258°
2026-05-05 11:58 51.15695 -0.16665 220 ft 7 kts 258°
2026-05-05 11:58 51.15682 -0.16755 220 ft 8 kts 258°
2026-05-05 11:58 51.15670 -0.16846 216 ft 8 kts 258°
2026-05-05 11:58 51.15657 -0.16938 216 ft 8 kts 257°
2026-05-05 11:59 51.15644 -0.17029 211 ft 8 kts 257°
2026-05-05 11:59 51.15630 -0.17132 218 ft 11 kts 257°
2026-05-05 11:59 51.15607 -0.17282 214 ft 16 kts 256°
2026-05-05 11:59 51.15576 -0.17421 218 ft 13 kts 229°
2026-05-05 12:00 51.15541 -0.17497 218 ft 13 kts 247°
2026-05-05 12:00 51.15522 -0.17633 214 ft 13 kts 257°
2026-05-05 12:00 51.15503 -0.17768 218 ft 13 kts 257°
2026-05-05 12:00 51.15484 -0.17903 215 ft 13 kts 257°
2026-05-05 12:01 51.15464 -0.18053 216 ft 14 kts 257°
2026-05-05 12:01 51.15443 -0.18199 213 ft 11 kts 257°
2026-05-05 12:01 51.15394 -0.18272 216 ft 11 kts 183°
2026-05-05 12:01 51.15321 -0.18253 216 ft 11 kts 168°
2026-05-05 12:02 51.15247 -0.18227 218 ft 11 kts 168°
2026-05-05 12:02 51.15184 -0.18265 215 ft 11 kts 246°
2026-05-05 12:02 51.15178 -0.18385 208 ft 12 kts 261°
2026-05-05 12:02 51.15154 -0.18556 212 ft 19 kts 258°
2026-05-05 12:03 51.15127 -0.18758 218 ft 19 kts 257°
2026-05-05 12:03 51.15099 -0.18959 211 ft 19 kts 257°
2026-05-05 12:03 51.15072 -0.19154 217 ft 14 kts 258°
2026-05-05 12:03 51.15035 -0.19261 212 ft 12 kts 200°
2026-05-05 12:04 51.14961 -0.19296 219 ft 12 kts 239°
2026-05-05 12:04 51.14941 -0.19441 219 ft 21 kts 258°
2026-05-05 12:04 51.14895 -0.19776 219 ft 35 kts 257°
2026-05-05 12:04 51.14844 -0.20135 210 ft 32 kts 257°
2026-05-05 12:05 51.14800 -0.20465 216 ft 30 kts 258°
2026-05-05 12:05 51.14755 -0.20789 217 ft 30 kts 257°
2026-05-05 12:05 51.14711 -0.21103 218 ft 25 kts 258°
2026-05-05 12:05 51.14691 -0.21249 216 ft 10 kts 258°
2026-05-05 12:06 51.14661 -0.21326 216 ft 9 kts 201°
2026-05-05 12:06 51.14623 -0.21326 215 ft 0 kts 169°
2026-05-05 12:08 51.14608 -0.21322 218 ft 5 kts 169°
2026-05-05 12:08 51.14574 -0.21309 213 ft 5 kts 159°
2026-05-05 12:08 51.14528 -0.21232 218 ft 13 kts 116°
2026-05-05 12:09 51.14523 -0.21150 212 ft 0 kts 78°
2026-05-05 12:09 51.14555 -0.20928 217 ft 55 kts 77°
2026-05-05 12:09 51.14690 -0.19943 213 ft 126 kts 76°
2026-05-05 12:09 51.14909 -0.18269 309 ft 175 kts 75°
2026-05-05 12:10 51.15169 -0.16291 994 ft 186 kts 76°
2026-05-05 12:10 51.15438 -0.14225 1839 ft 191 kts 75°
2026-05-05 12:10 51.15732 -0.12181 2459 ft 189 kts 73°
2026-05-05 12:10 51.16027 -0.10166 2952 ft 188 kts 73°
2026-05-05 12:11 51.16405 -0.08071 2993 ft 206 kts 60°
2026-05-05 12:11 51.17346 -0.06315 2985 ft 212 kts 34°
2026-05-05 12:11 51.18672 -0.05308 3017 ft 226 kts 13°
2026-05-05 12:11 51.20403 -0.05397 3144 ft 276 kts 338°
2026-05-05 12:12 51.22008 -0.07283 3918 ft 310 kts 311°
2026-05-05 12:12 51.22889 -0.10394 4605 ft 309 kts 278°
2026-05-05 12:12 51.22750 -0.13716 5409 ft 295 kts 258°
2026-05-05 12:12 51.22264 -0.16800 6570 ft 280 kts 255°
2026-05-05 12:13 51.21768 -0.19816 7720 ft 283 kts 256°
2026-05-05 12:13 51.21322 -0.22891 8762 ft 285 kts 258°
2026-05-05 12:13 51.20923 -0.26006 9825 ft 289 kts 259°
2026-05-05 12:13 51.20539 -0.29212 10537 ft 304 kts 260°
2026-05-05 12:14 51.20131 -0.32695 10806 ft 336 kts 260°
2026-05-05 12:14 51.19673 -0.36494 11259 ft 358 kts 259°
2026-05-05 12:14 51.19156 -0.40453 12102 ft 369 kts 259°
2026-05-05 12:14 51.18621 -0.44493 13080 ft 375 kts 259°
2026-05-05 12:15 51.18082 -0.48587 13986 ft 381 kts 259°
2026-05-05 12:15 51.17529 -0.52764 14765 ft 390 kts 258°
2026-05-05 12:15 51.16838 -0.56969 15582 ft 394 kts 255°
2026-05-05 12:15 51.16093 -0.61146 16692 ft 391 kts 254°
2026-05-05 12:16 51.15339 -0.65314 17632 ft 393 kts 254°
2026-05-05 12:16 51.14578 -0.69515 18454 ft 397 kts 254°
2026-05-05 12:16 51.13811 -0.73750 19164 ft 401 kts 253°
2026-05-05 12:16 51.13037 -0.78030 19859 ft 404 kts 253°
2026-05-05 12:17 51.12318 -0.82001 20496 ft 408 kts 253°
2026-05-05 12:17 51.11530 -0.86359 21188 ft 411 kts 253°
2026-05-05 12:17 51.10737 -0.90736 21907 ft 413 kts 253°
2026-05-05 12:17 51.09935 -0.95152 22539 ft 418 kts 253°
2026-05-05 12:18 51.09127 -0.99595 23267 ft 419 kts 252°
2026-05-05 12:18 51.08313 -1.04060 23935 ft 419 kts 252°
2026-05-05 12:18 51.07497 -1.08523 24457 ft 423 kts 251°
2026-05-05 12:18 51.06670 -1.13031 24909 ft 427 kts 252°
2026-05-05 12:19 51.05843 -1.17528 25351 ft 431 kts 252°
2026-05-05 12:19 51.04988 -1.22172 25859 ft 433 kts 252°
2026-05-05 12:19 51.04150 -1.26718 26331 ft 436 kts 252°
2026-05-05 12:19 51.03292 -1.31355 26781 ft 439 kts 251°
2026-05-05 12:20 51.02427 -1.36020 27218 ft 442 kts 251°
2026-05-05 12:20 51.01554 -1.40716 27656 ft 444 kts 251°
2026-05-05 12:20 51.00678 -1.45418 28160 ft 444 kts 251°
2026-05-05 12:20 50.99798 -1.50128 28641 ft 445 kts 251°
2026-05-05 12:21 50.98912 -1.54853 29020 ft 448 kts 251°
2026-05-05 12:21 50.98019 -1.59610 29353 ft 451 kts 251°
2026-05-05 12:21 50.97116 -1.64401 29688 ft 454 kts 251°
2026-05-05 12:21 50.96209 -1.69203 30052 ft 456 kts 251°
2026-05-05 12:22 50.95295 -1.74030 30342 ft 458 kts 251°
2026-05-05 12:22 50.94376 -1.78876 30602 ft 460 kts 251°
2026-05-05 12:22 50.93449 -1.83749 30842 ft 462 kts 251°
2026-05-05 12:22 50.92517 -1.88637 31104 ft 465 kts 251°
2026-05-05 12:23 50.91578 -1.93541 31356 ft 466 kts 251°
2026-05-05 12:23 50.90637 -1.98454 31656 ft 466 kts 251°
2026-05-05 12:23 50.89695 -2.03355 31979 ft 465 kts 251°
2026-05-05 12:23 50.88750 -2.08257 32287 ft 465 kts 251°
2026-05-05 12:24 50.87804 -2.13153 32600 ft 465 kts 251°
2026-05-05 12:24 50.86857 -2.18044 32884 ft 465 kts 251°
2026-05-05 12:24 50.85907 -2.22937 33148 ft 465 kts 251°
2026-05-05 12:24 50.84955 -2.27825 33447 ft 465 kts 251°
2026-05-05 12:25 50.84000 -2.32718 33713 ft 465 kts 251°
2026-05-05 12:25 50.83044 -2.37609 33942 ft 466 kts 251°
2026-05-05 12:25 50.82084 -2.42504 34181 ft 466 kts 251°
2026-05-05 12:25 50.81128 -2.47394 34371 ft 465 kts 252°
2026-05-05 12:26 50.80500 -2.52362 34480 ft 470 kts 264°
2026-05-05 12:26 50.80470 -2.57599 34679 ft 472 kts 273°
2026-05-05 12:26 50.80967 -2.62733 34895 ft 472 kts 283°
2026-05-05 12:26 50.81853 -2.67745 35047 ft 474 kts 284°
2026-05-05 12:27 50.82771 -2.72757 35230 ft 475 kts 284°
2026-05-05 12:27 50.83688 -2.77771 35431 ft 474 kts 285°
2026-05-05 12:27 50.84581 -2.82722 35619 ft 475 kts 284°
2026-05-05 12:27 50.85470 -2.87737 35899 ft 473 kts 284°
2026-05-05 12:28 50.87227 -2.97830 35988 ft 478 kts 284°
2026-05-05 12:28 50.88963 -3.07961 35988 ft 474 kts 284°
2026-05-05 12:29 50.90673 -3.17991 35998 ft 471 kts 283°
2026-05-05 12:29 50.92372 -3.28012 35999 ft 471 kts 283°
2026-05-05 12:30 50.94062 -3.38040 35998 ft 471 kts 284°
2026-05-05 12:30 50.95747 -3.48089 36001 ft 471 kts 284°
2026-05-05 12:31 50.97423 -3.58143 36003 ft 472 kts 283°
2026-05-05 12:31 50.99091 -3.68209 36005 ft 472 kts 283°
2026-05-05 12:32 51.00749 -3.78276 36015 ft 472 kts 284°
2026-05-05 12:32 51.02399 -3.88354 36009 ft 472 kts 284°
2026-05-05 12:33 51.04044 -3.98452 36016 ft 471 kts 284°
2026-05-05 12:33 51.05676 -4.08538 36016 ft 471 kts 284°
2026-05-05 12:34 51.07299 -4.18633 36026 ft 471 kts 284°
2026-05-05 12:34 51.08904 -4.28670 36020 ft 471 kts 285°
2026-05-05 12:35 51.10510 -4.38780 36026 ft 471 kts 284°
2026-05-05 12:35 51.12107 -4.48893 36029 ft 472 kts 284°
2026-05-05 12:36 51.13700 -4.59041 36040 ft 472 kts 284°
2026-05-05 12:36 51.15283 -4.69194 36040 ft 473 kts 284°
2026-05-05 12:37 51.16859 -4.79364 36038 ft 473 kts 284°
2026-05-05 12:37 51.18428 -4.89553 36040 ft 473 kts 285°
2026-05-05 12:38 51.19988 -4.99740 36044 ft 474 kts 284°
2026-05-05 12:38 51.21541 -5.09950 36044 ft 474 kts 285°
2026-05-05 12:39 51.23085 -5.20170 36045 ft 474 kts 285°
2026-05-05 12:39 51.24619 -5.30390 36048 ft 473 kts 284°
2026-05-05 12:40 51.26144 -5.40608 36053 ft 473 kts 284°
2026-05-05 12:40 51.27660 -5.50838 36057 ft 473 kts 284°
2026-05-05 12:41 51.29166 -5.61072 36058 ft 473 kts 285°